Regional Weather Roundup
Issued by NWS

Home | Current Version | Previous Version | Graphics & Text | Print | Product List | Glossary On
Versions: 1 2 3 4 5 6 7 8 9 10 11 12 13 14 15 16 17 18 19 20 21 22 23 24 25 26 27 28 29 30 31 32 33 34 35 36 37 38 39 40 41 42 43 44 45 46 47 48 49 50
000
ASUS44 KMEG 240710
RWRTN
TENNESSEE HOURLY STATE WEATHER ROUNDUP
NATIONAL WEATHER SERVICE MEMPHIS TN
200 AM CDT MON JUL 24 2017

TNZ002-004-019-021-049-052-054-088>092-240800-
WEST TENNESSEE

CITY           SKY/WX    TMP DP  RH WIND       PRES   REMARKS
MEMPHIS INTL   CLOUDY    75  75 100 SW8       29.90R
NWS MEMPHIS      N/A     74 N/A N/A MISG        N/A
JACKSON        MOCLDY    73  73 100 CALM      29.89F
SOMERVILLE       N/A     75  73  94 S5        29.88F
COVINGTON      CLEAR     73  73 100 CALM      29.89S
UNION CITY     CLEAR     72  72 100 CALM      29.88S
BOLIVAR        MOCLDY    75  73  94 S3        29.90R
PARIS          CLOUDY    72  70  94 CALM      29.89S
HUNTINGDON     PTCLDY    73  72  94 CALM      29.88F
LEXINGTON      CLEAR     72  72 100 CALM      29.90S
SELMER         CLEAR     75  73  94 CALM      29.91R
SAVANNAH       PTCLDY    75  75 100 CALM      29.90S
$$

TNZ008-025-027-028-033-062-065-066-240800-
NORTH MIDDLE TENNESSEE

CITY           SKY/WX    TMP DP  RH WIND       PRES   REMARKS
NASHVILLE      CLOUDY    72  69  90 SE5       29.93F
PORTLAND         N/A     72  72 100 S9        29.90F
CLARKSVILLE    CLOUDY    76  72  87 W3        29.89F
SMYRNA         CLOUDY    71  69  93 S7        29.93F THUNDER
COOKEVILLE       N/A     70  70 100 CALM      29.95R
GALLATIN       PTCLDY    72  72 100 CALM      29.94F
CROSSVILLE     CLOUDY    68  66  93 W6        29.99S
$$

TNZ061-075-076-078-094-096-097-240800-
SOUTH MIDDLE TENNESSEE

CITY           SKY/WX    TMP DP  RH WIND       PRES   REMARKS
FAYETTEVILLE   CLOUDY    70  68  94 NE10G17   29.97R FOG
TULLAHOMA      MOCLDY    68  66  94 CALM      29.97F
WINCHESTER     CLOUDY    70  70 100 CALM      29.97S
MCMINNVILLE    CLOUDY    70  70 100 CALM      29.95F
SHELBYVILLE    MOCLDY    68  68 100 SW6       29.95S
$$

TNZ017-018-042-046-047-240800-
NORTHEAST TENNESSEE

CITY           SKY/WX    TMP DP  RH WIND       PRES   REMARKS
TRI CITIES     CLOUDY    71  69  93 SW12      29.96S
ELIZABETHTON   MOCLDY    72  70  94 CALM      29.96S
$$

TNZ012-013-036-069-073-074-240800-
CENTRAL EAST TENNESSEE

CITY           SKY/WX    TMP DP  RH WIND       PRES   REMARKS
KNOXVILLE      CLOUDY    70  68  93 SE3       29.93F
OAK RIDGE      MOCLDY    70  68  93 CALM      29.96F
DOWNTOWN KNOXV CLEAR     70  70 100 CALM      29.93F
GATLINBURG     CLEAR     70  66  88 CALM      29.93F
MORRISTOWN     MOCLDY    70  68  94 SW6       29.94F
JACKSBORO      CLOUDY    70  70 100 CALM      29.98S
$$

TNZ083-085-099-240800-
SOUTHEAST TENNESSEE

CITY           SKY/WX    TMP DP  RH WIND       PRES   REMARKS
CHATTANOOGA    RAIN      73  70  90 CALM      29.93F
DAYTON         PTSUNNY   75  72  88 CALM      29.94S
$$

SKY/WX REPORTED AS FAIR MEANS FEW OR NO CLOUDS BELOW
12 THOUSAND FEET.




USA.gov is the U.S. government's official web portal to all federal, state and local government web resources and services.